�������l�o���
Date,Time,MP-1(��Sv/h),MP-2(��Sv/h),MP-3(��Sv/h),MP-4(��Sv/h),MP-5(��Sv/h),MP-6(��Sv/h),MP-7(��Sv/h),MP-8(��Sv/h),����,����(m/s),���J
2018/11/04,00:00,0.794,1.201,0.842,1.502,1.094,0.461,0.812,0.767,�쐼,2.0,��
2018/11/04,00:10,0.794,1.202,0.842,1.504,1.094,0.461,0.811,0.768,���쐼,0.8,��
2018/11/04,00:20,0.793,1.201,0.841,1.504,1.093,0.460,0.812,0.766,���쐼,1.2,��
2018/11/04,00:30,0.793,1.202,0.841,1.501,1.093,0.461,0.811,0.767,��,1.2,��
2018/11/04,00:40,0.793,1.202,0.842,1.502,1.092,0.461,0.812,0.767,��,1.9,��
2018/11/04,00:50,0.793,1.201,0.843,1.504,1.092,0.461,0.812,0.766,-,CALM,��
2018/11/04,01:00,0.793,1.202,0.843,1.503,1.093,0.461,0.810,0.767,�쐼,0.8,��
2018/11/04,01:10,0.794,1.198,0.841,1.504,1.094,0.461,0.811,0.766,��,0.8,��
2018/11/04,01:20,0.793,1.201,0.841,1.505,1.093,0.462,0.811,0.767,��쐼,1.1,��
2018/11/04,01:30,0.791,1.200,0.844,1.504,1.091,0.460,0.810,0.766,��쐼,1.1,��
2018/11/04,01:40,0.793,1.198,0.843,1.503,1.093,0.461,0.811,0.766,��쐼,1.7,��
2018/11/04,01:50,0.794,1.199,0.842,1.504,1.092,0.461,0.810,0.766,��쐼,2.3,��
2018/11/04,02:00,0.793,1.202,0.842,1.504,1.092,0.460,0.811,0.767,��쐼,3.1,��
2018/11/04,02:10,0.792,1.201,0.841,1.503,1.091,0.460,0.811,0.765,�쐼,2.6,��
2018/11/04,02:20,0.793,1.203,0.840,1.503,1.093,0.459,0.811,0.766,�쐼,1.7,��
2018/11/04,02:30,0.793,1.198,0.839,1.502,1.092,0.461,0.811,0.765,��쐼,1.5,��
2018/11/04,02:40,0.791,1.204,0.840,1.502,1.093,0.460,0.809,0.768,��쐼,1.2,��
2018/11/04,02:50,0.793,1.199,0.842,1.503,1.093,0.461,0.810,0.766,���쐼,2.3,��
2018/11/04,03:00,0.792,1.200,0.842,1.502,1.091,0.461,0.810,0.767,��쐼,3.8,��
2018/11/04,03:10,0.793,1.201,0.840,1.502,1.094,0.461,0.812,0.767,��쐼,3.8,��
2018/11/04,03:20,0.790,1.200,0.840,1.501,1.092,0.460,0.811,0.766,��쐼,3.5,��
2018/11/04,03:30,0.794,1.199,0.840,1.500,1.089,0.460,0.810,0.765,��쐼,4.3,��
2018/11/04,03:40,0.792,1.197,0.839,1.502,1.091,0.462,0.810,0.767,�쐼,2.6,��
2018/11/04,03:50,0.792,1.200,0.841,1.504,1.093,0.462,0.811,0.767,��쐼,2.0,��
2018/11/04,04:00,0.793,1.200,0.841,1.501,1.093,0.461,0.812,0.767,�쐼,2.0,��
2018/11/04,04:10,0.792,1.200,0.842,1.501,1.091,0.461,0.811,0.766,�쐼,2.0,��
2018/11/04,04:20,0.791,1.199,0.841,1.500,1.091,0.459,0.811,0.766,�쐼,1.7,��
2018/11/04,04:30,0.791,1.198,0.843,1.503,1.091,0.460,0.812,0.767,��쓌,1.2,��
2018/11/04,04:40,0.790,1.200,0.841,1.501,1.091,0.461,0.810,0.764,��쓌,1.2,��
2018/11/04,04:50,0.792,1.200,0.840,1.503,1.092,0.459,0.811,0.767,��쐼,1.7,��
2018/11/04,05:00,0.792,1.198,0.839,1.502,1.092,0.459,0.809,0.766,�쐼,2.6,��
2018/11/04,05:10,0.792,1.197,0.840,1.502,1.092,0.460,0.811,0.767,���쐼,2.3,��
2018/11/04,05:20,0.792,1.198,0.839,1.503,1.093,0.459,0.810,0.766,��,1.9,��
2018/11/04,05:30,0.792,1.199,0.840,1.503,1.089,0.459,0.811,0.765,���k��,1.5,��
2018/11/04,05:40,0.790,1.199,0.842,1.501,1.091,0.461,0.812,0.766,-,CALM,��
2018/11/04,05:50,0.792,1.198,0.839,1.502,1.089,0.459,0.810,0.766,��,0.9,��
2018/11/04,06:00,0.792,1.200,0.842,1.502,1.093,0.460,0.808,0.765,�k�k��,1.4,��
2018/11/04,06:10,0.790,1.198,0.840,1.503,1.091,0.460,0.809,0.766,�k�k��,2.8,��
2018/11/04,06:20,0.792,1.201,0.841,1.501,1.091,0.458,0.811,0.767,�k�k��,3.0,��
2018/11/04,06:30,0.792,1.202,0.839,1.502,1.091,0.460,0.811,0.767,�k�k��,2.3,��
2018/11/04,06:40,0.791,1.197,0.842,1.501,1.091,0.459,0.809,0.766,�k,1.5,��
2018/11/04,06:50,0.793,1.199,0.842,1.502,1.089,0.460,0.811,0.767,�k�k��,1.2,��
2018/11/04,07:00,0.792,1.198,0.841,1.502,1.089,0.460,0.810,0.768,�k�k��,1.5,��
2018/11/04,07:10,0.792,1.198,0.840,1.502,1.090,0.460,0.811,0.767,�k�k��,1.1,��
2018/11/04,07:20,0.790,1.198,0.840,1.502,1.089,0.459,0.811,0.764,�k�k��,0.6,��
2018/11/04,07:30,0.791,1.201,0.840,1.503,1.092,0.461,0.811,0.766,-,CALM,��
2018/11/04,07:40,0.793,1.201,0.841,1.502,1.091,0.460,0.811,0.767,-,CALM,��
2018/11/04,07:50,0.793,1.200,0.842,1.504,1.089,0.459,0.811,0.767,�k��,0.6,��
2018/11/04,08:00,0.794,1.201,0.842,1.506,1.092,0.460,0.813,0.767,�k��,0.8,��
2018/11/04,08:10,0.794,1.202,0.842,1.505,1.092,0.462,0.815,0.768,�k�k��,1.7,��
2018/11/04,08:20,0.793,1.202,0.841,1.503,1.092,0.459,0.813,0.767,�k�k��,2.3,��
2018/11/04,08:30,0.793,1.202,0.843,1.504,1.093,0.462,0.813,0.768,�k�k��,2.0,��
2018/11/04,08:40,0.796,1.199,0.843,1.506,1.092,0.461,0.813,0.768,�k,2.9,��
2018/11/04,08:50,0.793,1.201,0.845,1.506,1.093,0.460,0.811,0.768,�k,2.5,��
2018/11/04,09:00,0.794,1.202,0.843,1.506,1.092,0.462,0.812,0.767,�k,1.7,��
2018/11/04,09:10,0.795,1.201,0.842,1.501,1.094,0.461,0.810,0.768,�k��,1.5,��
2018/11/04,09:20,0.794,1.198,0.844,1.506,1.095,0.462,0.811,0.769,�k�k��,2.0,��
2018/11/04,09:30,0.794,1.203,0.844,1.506,1.095,0.462,0.812,0.769,�k,2.0,��
2018/11/04,09:40,0.794,1.202,0.844,1.503,1.093,0.462,0.812,0.767,�k,1.7,��
2018/11/04,09:50,0.794,1.201,0.845,1.506,1.094,0.462,0.813,0.769,�k�k��,1.7,��
2018/11/04,10:00,0.794,1.200,0.844,1.507,1.092,0.462,0.812,0.769,�k��,2.0,��
2018/11/04,10:10,0.796,1.201,0.844,1.505,1.091,0.460,0.810,0.768,�k��,2.0,��
2018/11/04,10:20,0.795,1.205,0.843,1.506,1.093,0.460,0.811,0.768,�k��,2.0,��
2018/11/04,10:30,0.793,1.202,0.842,1.506,1.092,0.458,0.810,0.767,���k��,3.1,��
2018/11/04,10:40,0.795,1.201,0.842,1.506,1.083,0.460,0.812,0.768,�k��,2.6,��
2018/11/04,10:50,0.796,1.204,0.843,1.508,1.082,0.459,0.812,0.771,���k��,2.6,��
2018/11/04,11:00,0.795,1.204,0.844,1.504,1.096,0.460,0.812,0.769,�k��,2.8,��
2018/11/04,11:10,0.794,1.204,0.843,1.507,1.095,0.459,0.812,0.771,�k�k��,2.6,��
2018/11/04,11:20,0.795,1.203,0.843,1.507,1.097,0.461,0.814,0.769,��,2.3,��
2018/11/04,11:30,0.796,1.203,0.841,1.506,1.095,0.460,0.812,0.771,��,2.3,��
2018/11/04,11:40,0.797,1.205,0.843,1.510,1.095,0.459,0.813,0.768,��,2.8,��
2018/11/04,11:50,0.795,1.203,0.844,1.508,1.097,0.460,0.814,0.769,���k��,2.3,��
2018/11/04,12:00,0.795,1.204,0.845,1.506,1.096,0.460,0.814,0.768,���k��,2.2,��
2018/11/04,12:10,0.798,1.204,0.843,1.506,1.097,0.461,0.813,0.768,���k��,2.6,��
2018/11/04,12:20,0.795,1.204,0.843,1.508,1.098,0.462,0.813,0.768,��,3.6,��
2018/11/04,12:30,0.794,1.203,0.843,1.506,1.097,0.463,0.812,0.764,���쓌,2.6,��
2018/11/04,12:40,0.797,1.207,0.842,1.506,1.096,0.460,0.812,0.767,���쓌,3.0,��
2018/11/04,12:50,0.796,1.205,0.844,1.508,1.097,0.461,0.813,0.765,���쓌,3.0,��
2018/11/04,13:00,0.796,1.206,0.844,1.504,1.096,0.462,0.813,0.766,���쓌,2.8,��
2018/11/04,13:10,0.796,1.207,0.843,1.505,1.095,0.461,0.812,0.765,���쓌,2.2,��
2018/11/04,13:20,0.796,1.206,0.843,1.507,1.099,0.460,0.813,0.767,��,2.3,��
2018/11/04,13:30,0.797,1.205,0.843,1.506,1.097,0.461,0.813,0.768,���쓌,2.6,��
2018/11/04,13:40,0.794,1.206,0.844,1.509,1.097,0.460,0.813,0.766,���쓌,1.9,��
2018/11/04,13:50,0.798,1.204,0.846,1.508,1.097,0.460,0.815,0.766,�쓌,1.9,��
2018/11/04,14:00,0.796,1.205,0.845,1.508,1.096,0.461,0.813,0.766,���쓌,2.6,��
2018/11/04,14:10,0.795,1.204,0.845,1.508,1.096,0.461,0.813,0.766,���쓌,1.7,��
2018/11/04,14:20,0.795,1.207,0.845,1.508,1.096,0.462,0.812,0.767,���쓌,1.7,��
2018/11/04,14:30,0.795,1.204,0.845,1.508,1.095,0.460,0.813,0.768,���쓌,2.2,��
2018/11/04,14:40,0.797,1.203,0.843,1.507,1.097,0.462,0.814,0.767,�쓌,1.9,��
2018/11/04,14:50,0.797,1.206,0.844,1.509,1.098,0.462,0.813,0.766,���쓌,2.3,��
2018/11/04,15:00,0.795,1.206,0.845,1.509,1.097,0.464,0.813,0.767,���쓌,2.0,��
2018/11/04,15:10,0.797,1.205,0.843,1.509,1.097,0.462,0.812,0.766,���쓌,2.3,��
2018/11/04,15:20,0.796,1.204,0.845,1.507,1.097,0.463,0.813,0.766,��,2.3,��
2018/11/04,15:30,0.796,1.206,0.845,1.507,1.097,0.462,0.815,0.766,���쓌,1.5,��
2018/11/04,15:40,0.797,1.208,0.845,1.509,1.101,0.461,0.810,0.766,���쓌,1.5,��
2018/11/04,15:50,0.796,1.207,0.844,1.511,1.096,0.464,0.813,0.768,�쓌,2.2,��
2018/11/04,16:00,0.796,1.203,0.844,1.510,1.098,0.464,0.812,0.768,�쓌,2.3,��
2018/11/04,16:10,0.797,1.205,0.846,1.509,1.096,0.463,0.813,0.768,��쓌,1.5,��
2018/11/04,16:20,0.796,1.208,0.844,1.508,1.096,0.463,0.813,0.770,��쓌,3.2,��
2018/11/04,16:30,0.797,1.213,0.848,1.507,1.097,0.462,0.812,0.771,��쓌,3.3,��
2018/11/04,16:40,0.796,1.208,0.845,1.505,1.097,0.463,0.812,0.769,��,5.1,��
2018/11/04,16:50,0.797,1.210,0.845,1.507,1.099,0.463,0.815,0.770,��,4.7,��
2018/11/04,17:00,0.798,1.208,0.846,1.508,1.097,0.463,0.813,0.769,��쐼,3.9,��
2018/11/04,17:10,0.800,1.208,0.846,1.507,1.098,0.462,0.814,0.769,�쐼,2.0,��
2018/11/04,17:20,0.798,1.207,0.846,1.506,1.097,0.463,0.814,0.769,��,1.4,��
2018/11/04,17:30,0.797,1.207,0.845,1.508,1.098,0.462,0.814,0.769,���k��,1.5,��
2018/11/04,17:40,0.797,1.209,0.845,1.508,1.097,0.462,0.813,0.768,���k��,1.7,��
2018/11/04,17:50,0.798,1.208,0.845,1.506,1.101,0.464,0.815,0.770,���k��,0.9,��
2018/11/04,18:00,0.799,1.208,0.847,1.507,1.099,0.465,0.812,0.767,�쐼,0.9,��
2018/11/04,18:10,0.798,1.209,0.847,1.509,1.099,0.462,0.813,0.770,��쐼,1.2,��
2018/11/04,18:20,0.796,1.207,0.845,1.507,1.097,0.462,0.814,0.770,��,1.7,��
2018/11/04,18:30,0.796,1.205,0.847,1.508,1.099,0.462,0.813,0.769,��,2.2,��
2018/11/04,18:40,0.798,1.209,0.845,1.507,1.102,0.463,0.814,0.769,��쐼,0.9,��
2018/11/04,18:50,0.799,1.207,0.846,1.508,1.100,0.463,0.813,0.769,��,0.6,��
2018/11/04,19:00,0.798,1.206,0.846,1.508,1.100,0.463,0.814,0.769,��쓌,1.1,��
2018/11/04,19:10,0.799,1.209,0.845,1.506,1.099,0.462,0.813,0.769,�쐼,0.6,��
2018/11/04,19:20,0.796,1.207,0.847,1.506,1.100,0.463,0.813,0.770,��,1.2,��
2018/11/04,19:30,0.798,1.206,0.846,1.508,1.098,0.462,0.814,0.767,��쐼,2.0,��
2018/11/04,19:40,0.798,1.206,0.848,1.507,1.099,0.462,0.812,0.769,��쐼,2.3,��
2018/11/04,19:50,0.797,1.206,0.845,1.507,1.097,0.463,0.814,0.769,��쐼,2.5,��
2018/11/04,20:00,0.798,1.208,0.848,1.506,1.099,0.461,0.813,0.769,��,3.0,��
2018/11/04,20:10,0.797,1.206,0.845,1.508,1.100,0.462,0.814,0.769,��,2.2,��
2018/11/04,20:20,0.798,1.207,0.845,1.508,1.099,0.462,0.813,0.771,��쓌,1.9,��
2018/11/04,20:30,0.798,1.207,0.845,1.506,1.097,0.464,0.813,0.769,��쓌,2.8,��
2018/11/04,20:40,0.797,1.208,0.847,1.507,1.099,0.462,0.813,0.769,��,3.2,��
2018/11/04,20:50,0.797,1.206,0.846,1.505,1.099,0.463,0.813,0.770,��,3.8,��
2018/11/04,21:00,0.796,1.206,0.845,1.509,1.098,0.462,0.813,0.770,��쓌,3.9,��
2018/11/04,21:10,0.798,1.207,0.844,1.506,1.100,0.461,0.814,0.768,��쓌,3.4,��
2018/11/04,21:20,0.796,1.206,0.844,1.506,1.099,0.461,0.812,0.767,��,3.0,��
2018/11/04,21:30,0.798,1.209,0.845,1.508,1.100,0.463,0.813,0.768,��,3.3,��
2018/11/04,21:40,0.797,1.207,0.845,1.508,1.100,0.463,0.811,0.769,��쓌,3.2,��
2018/11/04,21:50,0.798,1.208,0.846,1.507,1.101,0.462,0.813,0.768,��쓌,2.8,��
2018/11/04,22:00,0.799,1.205,0.845,1.505,1.100,0.461,0.813,0.769,��,3.2,��
2018/11/04,22:10,0.798,1.206,0.845,1.506,1.098,0.461,0.815,0.768,��,3.9,��
2018/11/04,22:20,0.798,1.208,0.847,1.505,1.099,0.463,0.813,0.769,��쓌,4.2,��
2018/11/04,22:30,0.797,1.207,0.846,1.507,1.100,0.462,0.812,0.768,��,4.2,��
2018/11/04,22:40,0.797,1.206,0.846,1.506,1.098,0.462,0.814,0.769,��,3.6,��
2018/11/04,22:50,0.798,1.206,0.844,1.505,1.101,0.462,0.813,0.770,��,2.9,��
2018/11/04,23:00,0.798,1.208,0.846,1.505,1.098,0.461,0.812,0.770,��,3.5,��
2018/11/04,23:10,0.798,1.207,0.847,1.507,1.101,0.462,0.814,0.769,��,3.1,��
2018/11/04,23:20,0.798,1.204,0.847,1.508,1.099,0.463,0.812,0.768,��,3.0,��
2018/11/04,23:30,0.797,1.207,0.846,1.509,1.099,0.462,0.812,0.769,��,3.1,��
2018/11/04,23:40,0.798,1.206,0.844,1.507,1.097,0.462,0.813,0.769,��,3.6,��
2018/11/04,23:50,0.799,1.206,0.843,1.505,1.097,0.462,0.812,0.769,��,4.0,��
